Hourly Data Report for October 03, 2017

All times are specified in Local Standard Time (LST). Add 1 hour to adjust for Daylight Saving Time where and when it is observed.

HAMILTON A
ONTARIO

43°10'25.000" N
79°56'06.000" W
237.70 m
6153193
71263
YHM

Download Data

Hourly Data (October 2017)
Hourly Data Report for October 3, 2017
Temp Definition
°C
Dew Point Temp Definition
°C
Rel Hum Definition
%
Wind Dir Definition
10's deg

Wind Spd Definition
km/h
Visibility Definition
km
Stn Press Definition
kPa
Hmdx Definition


Wind Chill Definition


Weather Definition


TIME
00:00 Legend Double Dagger 9.2 9.0 98 3 12 24.1 100.04     LegendNANA
01:00 Legend Double Dagger 10.4 10.3 100 4 8 24.1 100.05     Mainly Clear
02:00 Legend Double Dagger 10.3 10.3 100 4 8 24.1 100.04     LegendNANA
03:00 Legend Double Dagger 8.3 8.3 100 8 7 24.1 100.05     LegendNANA
04:00 Legend Double Dagger 10.4 10.4 100 10 3 24.1 100.08     Clear
05:00 Legend Double Dagger 9.8 9.7 99 15 3 24.1 100.14     LegendNANA
06:00 Legend Double Dagger 10.0 9.9 100 36 3 24.1 100.19     LegendNANA
07:00 Legend Double Dagger 10.0 9.6 97 17 5 24.1 100.25     Mainly Clear
08:00 Legend Double Dagger 13.2 12.2 94 36 2 24.1 100.29     LegendNANA
09:00 Legend Double Dagger 17.0 12.7 75 19 17 24.1 100.26     LegendNANA
10:00 Legend Double Dagger 20.1 12.7 62 18 21 24.1 100.26     Mainly Clear
11:00 Legend Double Dagger 21.9 12.2 53 23 18 24.1 100.22     LegendNANA
12:00 Legend Double Dagger 22.9 9.9 43 21 17 24.1 100.19     LegendNANA
13:00 Legend Double Dagger 24.0 10.9 43 22 23 24.1 100.13 26   Clear
14:00 Legend Double Dagger 25.1 11.0 41 19 20 24.1 100.06 27   LegendNANA
15:00 Legend Double Dagger 25.0 9.6 37 19 23 24.1 100.00 26   LegendNANA
16:00 Legend Double Dagger 24.0 8.5 37 20 26 24.1 99.99 25   Mainly Clear
17:00 Legend Double Dagger 22.2 9.1 43 19 20 24.1 99.98     LegendNANA
18:00 Legend Double Dagger 19.8 9.3 50 20 8 24.1 99.98     LegendNANA
19:00 Legend Double Dagger 18.2 10.0 59 17 11 24.1 99.97     Mostly Cloudy
20:00 Legend Double Dagger 16.7 11.9 73 18 12 24.1 99.98     LegendNANA
21:00 Legend Double Dagger 16.6 13.1 80 18 16 24.1 99.96     LegendNANA
22:00 Legend Double Dagger 16.9 13.2 79 19 16 24.1 99.93     Mainly Clear
23:00 Legend Double Dagger 18.2 12.0 67 20 16 24.1 99.93     LegendNANA

Notes on Data Quality.

Legend

  • E = Estimated
  • M = Missing
  • NA = Not Available
  • ‡ = Partner data that is not subject to review by the National Climate Archives
Date modified: